Hourly Weather a/p Chisinau International Airport

Today, 24 January, Sunday

Time Temperature Precipitation Wind Pressure Humidity
00:00 +5°C° 0 mm 7 mps 750 mmHg 90%
01:00 +5°C° 0 mm 8 mps 749 mmHg 89%
02:00 +5°C° 0 mm 9 mps 749 mmHg 89%
03:00 +6°C° 0.1 mm 9 mps 749 mmHg 90%
04:00 +6°C° 0.1 mm 8 mps 748 mmHg 91%
05:00 +6°C° 0.1 mm 8 mps 747 mmHg 92%
06:00 +6°C° 0.4 mm 8 mps 747 mmHg 92%
07:00 +6°C° 0.4 mm 8 mps 747 mmHg 92%
08:00 +6°C° 0.4 mm 9 mps 746 mmHg 92%
09:00 +6°C° 0.2 mm 9 mps 746 mmHg 88%
10:00 +7°C° 0.2 mm 10 mps 746 mmHg 83%
11:00 +8°C° 0.2 mm 10 mps 746 mmHg 79%
12:00 +8°C° 0 mm 9 mps 746 mmHg 73%
13:00 +10°C° 0 mm 8 mps 746 mmHg 68%
14:00 +10°C° 0 mm 8 mps 746 mmHg 62%
15:00 +9°C° 0 mm 7 mps 747 mmHg 66%
16:00 +8°C° 0 mm 6 mps 747 mmHg 69%
17:00 +7°C° 0 mm 5 mps 747 mmHg 73%
18:00 +7°C° 0 mm 5 mps 747 mmHg 75%
19:00 +7°C° 0 mm 5 mps 747 mmHg 77%
20:00 +6°C° 0 mm 5 mps 748 mmHg 79%
21:00 +6°C° 0 mm 5 mps 748 mmHg 81%
22:00 +5°C° 0 mm 5 mps 748 mmHg 82%
23:00 +5°C° 0 mm 5 mps 748 mmHg 83%

Tomorrow, 25 January, Monday

Time Temperature Precipitation Wind Pressure Humidity
00:00 +4°C° 0 mm 4 mps 748 mmHg 84%
01:00 +4°C° 0 mm 4 mps 748 mmHg 85%
02:00 +3°C° 0 mm 3 mps 748 mmHg 86%
03:00 +3°C° 0 mm 3 mps 748 mmHg 86%
04:00 +3°C° 0 mm 3 mps 748 mmHg 87%
05:00 +4°C° 0 mm 2 mps 748 mmHg 87%
06:00 +3°C° 0 mm 3 mps 747 mmHg 89%
07:00 +3°C° 0 mm 3 mps 747 mmHg 92%
08:00 +3°C° 0 mm 4 mps 747 mmHg 94%
09:00 +4°C° 0 mm 4 mps 746 mmHg 95%
10:00 +5°C° 0 mm 5 mps 745 mmHg 95%
11:00 +6°C° 0 mm 5 mps 745 mmHg 96%
12:00 +7°C° 0.6 mm 6 mps 744 mmHg 95%
13:00 +6°C° 0.6 mm 7 mps 742 mmHg 94%
14:00 +6°C° 0.6 mm 8 mps 741 mmHg 93%
15:00 +6°C° 0.8 mm 8 mps 740 mmHg 92%
16:00 +6°C° 0.8 mm 8 mps 739 mmHg 90%
17:00 +7°C° 0.8 mm 8 mps 738 mmHg 89%
18:00 +6°C° 0 mm 8 mps 738 mmHg 83%
19:00 +5°C° 0 mm 9 mps 738 mmHg 76%
20:00 +3°C° 0 mm 10 mps 738 mmHg 70%
21:00 +2°C° 0 mm 10 mps 739 mmHg 71%
22:00 +1°C° 0 mm 10 mps 739 mmHg 73%
23:00 +1°C° 0 mm 10 mps 739 mmHg 74%

Day after tomorrow, 26 January, Tuesday

Time Temperature Precipitation Wind Pressure Humidity
00:00 0°C° 0.6 mm 10 mps 740 mmHg 80%
01:00 -1°C° 0.6 mm 9 mps 741 mmHg 86%
02:00 -3°C° 0.6 mm 9 mps 741 mmHg 93%
03:00 -2°C° 0.4 mm 8 mps 742 mmHg 93%
04:00 -2°C° 0.4 mm 7 mps 742 mmHg 93%
05:00 -2°C° 0.4 mm 6 mps 742 mmHg 93%
06:00 -2°C° 0.2 mm 7 mps 743 mmHg 89%
07:00 -2°C° 0.2 mm 7 mps 744 mmHg 85%
08:00 -2°C° 0.2 mm 8 mps 745 mmHg 81%
09:00 -1°C° 0.1 mm 8 mps 746 mmHg 73%
10:00 0°C° 0.1 mm 9 mps 748 mmHg 66%
11:00 0°C° 0.1 mm 9 mps 749 mmHg 58%
12:00 +1°C° 0 mm 9 mps 749 mmHg 55%
13:00 +1°C° 0 mm 9 mps 750 mmHg 51%
14:00 +2°C° 0 mm 8 mps 751 mmHg 48%
15:00 +2°C° 0 mm 7 mps 751 mmHg 50%
16:00 +1°C° 0 mm 6 mps 752 mmHg 53%
17:00 0°C° 0 mm 5 mps 753 mmHg 55%
18:00 0°C° 0 mm 5 mps 753 mmHg 56%
19:00 -1°C° 0 mm 5 mps 754 mmHg 57%
20:00 -1°C° 0 mm 5 mps 754 mmHg 58%
21:00 -2°C° 0 mm 5 mps 755 mmHg 59%
22:00 -2°C° 0 mm 4 mps 755 mmHg 60%
23:00 -2°C° 0 mm 4 mps 755 mmHg 61%

27 January, Wednesday

Time Temperature Precipitation Wind Pressure Humidity
00:00 -2°C° 0 mm 4 mps 756 mmHg 62%
01:00 -2°C° 0 mm 4 mps 756 mmHg 62%
02:00 -2°C° 0 mm 4 mps 756 mmHg 62%
03:00 -2°C° 0 mm 3 mps 756 mmHg 63%
04:00 -2°C° 0 mm 3 mps 756 mmHg 64%
05:00 -2°C° 0 mm 2 mps 756 mmHg 65%
06:00 -2°C° 0 mm 2 mps 756 mmHg 65%
07:00 -2°C° 0 mm 2 mps 756 mmHg 66%
08:00 0°C° 0 mm 1 mps 757 mmHg 66%
09:00 -1°C° 0 mm 2 mps 757 mmHg 60%
10:00 +2°C° 0 mm 2 mps 757 mmHg 55%
11:00 +3°C° 0 mm 2 mps 757 mmHg 49%
12:00 +3°C° 0 mm 2 mps 756 mmHg 49%
13:00 +4°C° 0 mm 2 mps 756 mmHg 48%
14:00 +4°C° 0 mm 2 mps 756 mmHg 47%
15:00 +3°C° 0 mm 2 mps 756 mmHg 51%
16:00 +3°C° 0 mm 1 mps 756 mmHg 55%
17:00 +1°C° 0 mm 1 mps 756 mmHg 59%
18:00 0°C° 0 mm 0 mps 756 mmHg 60%
19:00 0°C° 0 mm 0 mps 756 mmHg 60%
20:00 0°C° 0 mm 0 mps 756 mmHg 60%
21:00 -1°C° 0 mm 0 mps 756 mmHg 60%
22:00 -1°C° 0 mm 0 mps 756 mmHg 60%
23:00 -1°C° 0 mm 0 mps 756 mmHg 60%

28 January, Thursday

Time Temperature Precipitation Wind Pressure Humidity
00:00 -1°C° 0 mm 0 mps 756 mmHg 60%
01:00 0°C° 0 mm 1 mps 756 mmHg 60%
02:00 0°C° 0 mm 1 mps 756 mmHg 59%
03:00 0°C° 0 mm 1 mps 756 mmHg 61%
04:00 0°C° 0 mm 1 mps 756 mmHg 62%
05:00 0°C° 0 mm 1 mps 756 mmHg 64%
06:00 0°C° 0 mm 1 mps 756 mmHg 66%
07:00 -1°C° 0 mm 1 mps 756 mmHg 68%
08:00 -3°C° 0 mm 2 mps 756 mmHg 70%
09:00 -2°C° 0 mm 2 mps 756 mmHg 66%
10:00 -1°C° 0 mm 2 mps 756 mmHg 62%
11:00 0°C° 0 mm 3 mps 756 mmHg 58%
12:00 +1°C° 0 mm 3 mps 756 mmHg 57%
13:00 +1°C° 0 mm 3 mps 755 mmHg 56%
14:00 +1°C° 0 mm 3 mps 755 mmHg 54%
15:00 0°C° 0 mm 3 mps 755 mmHg 60%
16:00 -1°C° 0 mm 2 mps 755 mmHg 65%
17:00 -2°C° 0 mm 2 mps 755 mmHg 70%
18:00 0°C° 0 mm 1 mps 755 mmHg 72%
19:00 0°C° 0 mm 1 mps 755 mmHg 75%
20:00 -1°C° 0 mm 1 mps 755 mmHg 77%

29 January, Friday

Time Temperature Precipitation Wind Pressure Humidity
Show more